When you browse on this site, cookies collect data to enhance your experience and personalize the content and advertising you see.
Visit our Privacy Policy to learn more. By continuing to use the site, you agree to this use of cookies and data.
  • en France
  • Liste des pays
  • À 7 jours
  • Température de l'eau
  • Carte satellitaire
  • Carte météo
  • Widgets météo
  • user-avatar
    Se connecter

    Météo par heure à Kandahâr

    Ce jour, 25 Avril, Jeudi

    Heure Température Précipitation Vent Pression Humidité
    00:00 +23°C° 0 mm 2 m/s 675 mmHg 23%
    01:00 +21°C° 0 mm 2 m/s 674 mmHg 24%
    02:00 +21°C° 0 mm 2 m/s 674 mmHg 26%
    03:00 +20°C° 0 mm 2 m/s 674 mmHg 27%
    04:00 +19°C° 0 mm 2 m/s 674 mmHg 28%
    05:00 +21°C° 0 mm 1 m/s 675 mmHg 26%
    06:00 +22°C° 0 mm 1 m/s 675 mmHg 25%
    07:00 +22°C° 0 mm 1 m/s 676 mmHg 23%
    08:00 +24°C° 0 mm 2 m/s 676 mmHg 20%
    09:00 +25°C° 0 mm 3 m/s 677 mmHg 17%
    10:00 +26°C° 0 mm 4 m/s 677 mmHg 14%
    11:00 +27°C° 0 mm 4 m/s 677 mmHg 14%
    12:00 +28°C° 0 mm 5 m/s 677 mmHg 13%
    13:00 +29°C° 0 mm 6 m/s 677 mmHg 12%
    14:00 +29°C° 0 mm 6 m/s 677 mmHg 12%
    15:00 +29°C° 0 mm 6 m/s 676 mmHg 12%
    16:00 +28°C° 0 mm 7 m/s 676 mmHg 12%
    17:00 +27°C° 0 mm 6 m/s 676 mmHg 14%
    18:00 +26°C° 0 mm 5 m/s 676 mmHg 15%
    19:00 +25°C° 0 mm 5 m/s 676 mmHg 16%
    20:00 +25°C° 0 mm 4 m/s 676 mmHg 17%
    21:00 +23°C° 0 mm 4 m/s 676 mmHg 19%
    22:00 +22°C° 0 mm 3 m/s 677 mmHg 20%
    23:00 +23°C° 0 mm 2 m/s 676 mmHg 21%

    Demain, 26 Avril, Vendredi

    Heure Température Précipitation Vent Pression Humidité
    00:00 +21°C° 0 mm 2 m/s 676 mmHg 22%
    01:00 +21°C° 0 mm 1 m/s 675 mmHg 23%
    02:00 +21°C° 0 mm 1 m/s 675 mmHg 24%
    03:00 +20°C° 0 mm 1 m/s 675 mmHg 24%
    04:00 +20°C° 0 mm 1 m/s 675 mmHg 25%
    05:00 +20°C° 0 mm 1 m/s 675 mmHg 23%
    06:00 +21°C° 0 mm 1 m/s 676 mmHg 21%
    07:00 +22°C° 0 mm 1 m/s 676 mmHg 19%
    08:00 +23°C° 0 mm 2 m/s 677 mmHg 17%
    09:00 +24°C° 0 mm 2 m/s 677 mmHg 15%
    10:00 +25°C° 0 mm 2 m/s 677 mmHg 13%
    11:00 +26°C° 0 mm 3 m/s 677 mmHg 12%
    12:00 +27°C° 0 mm 3 m/s 677 mmHg 11%
    13:00 +28°C° 0 mm 3 m/s 677 mmHg 10%
    14:00 +28°C° 0 mm 4 m/s 677 mmHg 9%
    15:00 +29°C° 0 mm 4 m/s 676 mmHg 9%
    16:00 +29°C° 0 mm 4 m/s 676 mmHg 9%
    17:00 +28°C° 0 mm 4 m/s 676 mmHg 10%
    18:00 +27°C° 0 mm 4 m/s 676 mmHg 11%
    19:00 +26°C° 0 mm 3 m/s 676 mmHg 12%
    20:00 +26°C° 0 mm 3 m/s 676 mmHg 14%
    21:00 +25°C° 0 mm 3 m/s 677 mmHg 15%
    22:00 +24°C° 0 mm 2 m/s 677 mmHg 17%
    23:00 +23°C° 0 mm 2 m/s 676 mmHg 18%

    Après-demain, 27 Avril, Samedi

    Heure Température Précipitation Vent Pression Humidité
    00:00 +23°C° 0 mm 1 m/s 676 mmHg 20%
    01:00 +20°C° 0 mm 0 m/s 676 mmHg 22%
    02:00 +19°C° 0 mm 0 m/s 676 mmHg 23%
    03:00 +19°C° 0 mm 0 m/s 676 mmHg 23%
    04:00 +20°C° 0 mm 1 m/s 675 mmHg 24%
    05:00 +21°C° 0 mm 1 m/s 676 mmHg 22%
    06:00 +23°C° 0 mm 1 m/s 677 mmHg 20%
    07:00 +24°C° 0 mm 1 m/s 677 mmHg 18%
    08:00 +25°C° 0 mm 2 m/s 678 mmHg 16%
    09:00 +26°C° 0 mm 2 m/s 678 mmHg 14%
    10:00 +27°C° 0 mm 2 m/s 678 mmHg 13%
    11:00 +28°C° 0 mm 3 m/s 678 mmHg 12%
    12:00 +29°C° 0 mm 4 m/s 677 mmHg 11%
    13:00 +30°C° 0 mm 4 m/s 677 mmHg 10%
    14:00 +30°C° 0 mm 4 m/s 677 mmHg 10%
    15:00 +30°C° 0 mm 5 m/s 676 mmHg 10%
    16:00 +30°C° 0 mm 5 m/s 676 mmHg 9%
    17:00 +29°C° 0 mm 5 m/s 676 mmHg 10%
    18:00 +28°C° 0 mm 4 m/s 676 mmHg 12%
    19:00 +27°C° 0 mm 4 m/s 676 mmHg 13%
    20:00 +27°C° 0 mm 4 m/s 676 mmHg 14%
    21:00 +26°C° 0 mm 3 m/s 676 mmHg 15%
    22:00 +25°C° 0 mm 3 m/s 676 mmHg 17%
    23:00 +24°C° 0 mm 3 m/s 676 mmHg 18%

    28 Avril, Dimanche

    Heure Température Précipitation Vent Pression Humidité
    00:00 +24°C° 0 mm 2 m/s 676 mmHg 19%
    01:00 +23°C° 0 mm 1 m/s 675 mmHg 21%
    02:00 +22°C° 0 mm 1 m/s 675 mmHg 22%
    03:00 +22°C° 0 mm 1 m/s 675 mmHg 23%
    04:00 +21°C° 0 mm 1 m/s 675 mmHg 24%
    05:00 +22°C° 0 mm 1 m/s 675 mmHg 22%
    06:00 +23°C° 0 mm 1 m/s 676 mmHg 21%
    07:00 +24°C° 0 mm 2 m/s 676 mmHg 19%
    08:00 +25°C° 0 mm 2 m/s 676 mmHg 18%
    09:00 +26°C° 0 mm 2 m/s 677 mmHg 16%
    10:00 +28°C° 0 mm 3 m/s 677 mmHg 14%
    11:00 +29°C° 0 mm 3 m/s 677 mmHg 12%
    12:00 +30°C° 0 mm 4 m/s 676 mmHg 11%
    13:00 +32°C° 0 mm 4 m/s 676 mmHg 9%
    14:00 +32°C° 0 mm 4 m/s 675 mmHg 9%
    15:00 +32°C° 0 mm 5 m/s 675 mmHg 9%
    16:00 +32°C° 0 mm 5 m/s 675 mmHg 8%
    17:00 +30°C° 0 mm 5 m/s 675 mmHg 9%
    18:00 +29°C° 0 mm 4 m/s 675 mmHg 10%
    19:00 +28°C° 0 mm 4 m/s 675 mmHg 11%
    20:00 +27°C° 0 mm 4 m/s 675 mmHg 12%
    21:00 +27°C° 0 mm 3 m/s 675 mmHg 14%
    22:00 +26°C° 0 mm 3 m/s 675 mmHg 15%
    23:00 +25°C° 0 mm 2 m/s 674 mmHg 17%

    29 Avril, Lundi

    Heure Température Précipitation Vent Pression Humidité
    00:00 +24°C° 0 mm 2 m/s 674 mmHg 18%
    01:00 +23°C° 0 mm 1 m/s 673 mmHg 20%
    02:00 +23°C° 0 mm 1 m/s 673 mmHg 21%
    03:00 +22°C° 0 mm 1 m/s 673 mmHg 21%
    04:00 +19°C° 0 mm 0 m/s 672 mmHg 22%
    05:00 +21°C° 0 mm 0 m/s 673 mmHg 19%
    06:00 +24°C° 0 mm 1 m/s 673 mmHg 17%
    07:00 +25°C° 0 mm 1 m/s 674 mmHg 15%
    08:00 +26°C° 0 mm 1 m/s 674 mmHg 13%
    09:00 +28°C° 0 mm 1 m/s 674 mmHg 12%
    10:00 +29°C° 0 mm 1 m/s 674 mmHg 11%
    11:00 +30°C° 0 mm 1 m/s 674 mmHg 10%
    12:00 +30°C° 0 mm 1 m/s 673 mmHg 10%
    13:00 +31°C° 0 mm 1 m/s 673 mmHg 9%
    14:00 +32°C° 0 mm 1 m/s 672 mmHg 9%
    15:00 +32°C° 0 mm 1 m/s 672 mmHg 9%
    16:00 +32°C° 0 mm 2 m/s 671 mmHg 9%
    17:00 +31°C° 0 mm 2 m/s 671 mmHg 10%
    18:00 +31°C° 0 mm 2 m/s 671 mmHg 11%
    19:00 +30°C° 0 mm 2 m/s 671 mmHg 12%
    20:00 +29°C° 0 mm 2 m/s 671 mmHg 13%
    21:00 +29°C° 0 mm 3 m/s 671 mmHg 13%
    22:00 +28°C° 0 mm 3 m/s 672 mmHg 14%
    23:00 +27°C° 0 mm 5 m/s 671 mmHg 17%

    30 Avril, Mardi

    Heure Température Précipitation Vent Pression Humidité
    00:00 +26°C° 0 mm 6 m/s 671 mmHg 20%
    01:00 +24°C° 0 mm 8 m/s 671 mmHg 23%
    02:00 +24°C° 0 mm 6 m/s 671 mmHg 26%
    03:00 +23°C° 0 mm 5 m/s 671 mmHg 29%
    04:00 +24°C° 0 mm 3 m/s 671 mmHg 31%
    05:00 +24°C° 0 mm 3 m/s 672 mmHg 30%
    06:00 +24°C° 0 mm 2 m/s 672 mmHg 29%
    07:00 +25°C° 0 mm 2 m/s 672 mmHg 28%
    08:00 +26°C° 0 mm 3 m/s 673 mmHg 25%
    09:00 +27°C° 0 mm 4 m/s 673 mmHg 22%
    10:00 +29°C° 0 mm 5 m/s 673 mmHg 19%
    11:00 +29°C° 0 mm 5 m/s 673 mmHg 18%
    12:00 +30°C° 0 mm 6 m/s 673 mmHg 16%
    13:00 +32°C° 0 mm 6 m/s 672 mmHg 15%
    14:00 +32°C° 0 mm 6 m/s 672 mmHg 14%
    15:00 +32°C° 0 mm 6 m/s 672 mmHg 14%
    16:00 +32°C° 0 mm 6 m/s 671 mmHg 14%
    17:00 +30°C° 0 mm 6 m/s 671 mmHg 15%
    18:00 +29°C° 0 mm 5 m/s 672 mmHg 16%
    19:00 +28°C° 0 mm 5 m/s 672 mmHg 17%
    20:00 +28°C° 0 mm 4 m/s 672 mmHg 18%
    21:00 +27°C° 0 mm 4 m/s 672 mmHg 19%
    22:00 +26°C° 0 mm 4 m/s 672 mmHg 20%
    23:00 +25°C° 0 mm 4 m/s 671 mmHg 22%
    Voir plus